星链-5722 (STARLINK-5722 )

导读 | 星芒AI

STARLINK-5722 是 SpaceX Starlink 卫星互联网项目中的一颗低轨卫星,属于第 11 批部署的星链卫星之一。该卫星于 2021 年 10 月 31 日由猎鹰 9 号火箭送入近地轨道,旨在为全球用户提供高速、低延迟的互联网服务。它运行在约 550 公里的高度,采用先进的相控阵天线和激光通信技术,以提升网络性能和覆盖范围。STARLINK-5722 的部署进一步增强了 Starlink 网络的稳定性和服务能力,支持偏远地区的宽带接入,并为未来全球互联网覆盖奠定基础。

基本信息
目录编号:
55610
目录名称:
STARLINK-5722
国际标识:
2023-020AT
轨道中心:
EARTH
卫星名称:
星链-5722
卫星全名:
星链-5722 (STARLINK-5722 )
卫星状态:
在轨 (已飞行1043 天)
发射日期:
2023-02-12 UTC
国别 :
美国 (US)
星等 :
--
轨道信息
数据来源 国际轨道数据
星历时间: 2025-12-21T13:05:35+0800
9小时前
查看轨道信息
半长轴: 6937.228km
偏心率: 0.0001121
轨道倾角: 43.005°
近地点辐角 264.259°
升交点赤经 58.143°
平近点角 95.813°
近地点: 558.313km
远地点: 559.869km
周期: 95.838分钟
每日圈数: 15.025324
详细信息
固有亮度:
5
最大亮度:
2.5
卫星平台:
Starlink v1.5
覆盖范围:
全球
运营商:
太空探索技术公司
运营商所在国:
美国
制造商(研发单位):
太空探索技术公司
制造商所在国:
美国
使用方式:
暂无
卫星简介
星链(Starlink)计划是由太空探索技术公司(SpaceX)提出的一个巨型低轨卫星互联网星座项目,计划在2019年至2024年间在太空搭建由约1.2万颗卫星组成的“星链”网络,其中1584颗将部署在地球上空550千米处的近地轨道,并从2020年开始工作。该卫星仍在工作。
2D轨道图
3D轨道图
轨道高度分析图
轨道倾角分析图
轨道综合分析图
查看轨道综合分析图